GIA6001 WIII-WAAA

Flight info

Callsign GIA6001
Flight time 2h 20m
Altitude 41000
Route CA2A CA T5 BIMAK
Aircraft B77W/H-SDE1E2E3FGHIJ2J3J4J5M1RWXY/LB1D1

Departure

Time 2026-04-22 12:10
Airport Soekarno-Hatta International Airport (WIII)

Arrival

Time 2026-04-22 14:30
Airport Sultan Hasanuddin International Airport (WAAA)
Time Latitude Longitude Altitude Speed Heading
2026-04-22 11:42 -6.11897 106.65750 47 ft 0 kts 68°
2026-04-22 11:59 -6.11896 106.65750 48 ft 0 kts 68°
2026-04-22 11:59 -6.11898 106.65744 48 ft 2 kts 66°
2026-04-22 12:00 -6.11907 106.65727 48 ft 3 kts 55°
2026-04-22 12:00 -6.11918 106.65713 48 ft 3 kts 38°
2026-04-22 12:00 -6.11932 106.65703 48 ft 3 kts 17°
2026-04-22 12:00 -6.11949 106.65699 48 ft 3 kts 354°
2026-04-22 12:01 -6.11965 106.65702 48 ft 1 kts 339°
2026-04-22 12:01 -6.11967 106.65703 48 ft 0 kts 338°
2026-04-22 12:04 -6.11953 106.65697 48 ft 5 kts 338°
2026-04-22 12:05 -6.11900 106.65676 48 ft 12 kts 338°
2026-04-22 12:05 -6.11805 106.65638 48 ft 18 kts 338°
2026-04-22 12:05 -6.11684 106.65589 48 ft 15 kts 338°
2026-04-22 12:05 -6.11627 106.65588 48 ft 9 kts 41°
2026-04-22 12:06 -6.11585 106.65665 48 ft 16 kts 68°
2026-04-22 12:06 -6.11540 106.65779 48 ft 20 kts 68°
2026-04-22 12:06 -6.11482 106.65924 48 ft 25 kts 68°
2026-04-22 12:06 -6.11417 106.66087 48 ft 25 kts 68°
2026-04-22 12:07 -6.11352 106.66252 48 ft 22 kts 68°
2026-04-22 12:07 -6.11289 106.66410 48 ft 27 kts 68°
2026-04-22 12:07 -6.11218 106.66587 48 ft 26 kts 69°
2026-04-22 12:07 -6.11157 106.66739 48 ft 24 kts 68°
2026-04-22 12:08 -6.11100 106.66882 48 ft 18 kts 69°
2026-04-22 12:08 -6.11054 106.66965 48 ft 12 kts 37°
2026-04-22 12:08 -6.10992 106.66972 48 ft 14 kts 339°
2026-04-22 12:08 -6.10911 106.66890 48 ft 10 kts 284°
2026-04-22 12:09 -6.10917 106.66856 48 ft 0 kts 250°
2026-04-22 12:09 -6.10928 106.66824 48 ft 19 kts 250°
2026-04-22 12:09 -6.11073 106.66460 48 ft 103 kts 249°
2026-04-22 12:09 -6.11450 106.65509 72 ft 185 kts 249°
2026-04-22 12:10 -6.11967 106.64197 777 ft 203 kts 250°
2026-04-22 12:10 -6.12294 106.63292 1553 ft 206 kts 254°
2026-04-22 12:10 -6.12431 106.61905 2484 ft 216 kts 274°
2026-04-22 12:10 -6.12008 106.60337 3305 ft 231 kts 290°
2026-04-22 12:11 -6.11434 106.58767 3892 ft 256 kts 288°
2026-04-22 12:11 -6.10865 106.57015 4760 ft 268 kts 288°
2026-04-22 12:11 -6.10268 106.55202 5893 ft 271 kts 288°
2026-04-22 12:11 -6.09650 106.53389 6971 ft 275 kts 290°
2026-04-22 12:12 -6.08709 106.51708 7906 ft 281 kts 311°
2026-04-22 12:12 -6.07110 106.50572 8867 ft 288 kts 336°
2026-04-22 12:12 -6.05078 106.50234 9870 ft 292 kts
2026-04-22 12:12 -6.03096 106.50787 10683 ft 305 kts 26°
2026-04-22 12:13 -6.01411 106.52157 11346 ft 324 kts 48°
2026-04-22 12:13 -6.00201 106.54148 11981 ft 345 kts 65°
2026-04-22 12:13 -5.99468 106.56551 12701 ft 363 kts 78°
2026-04-22 12:13 -5.99124 106.59063 13435 ft 375 kts 82°
2026-04-22 12:14 -5.98809 106.61704 14302 ft 385 kts 83°
2026-04-22 12:14 -5.98513 106.64416 15174 ft 394 kts 83°
2026-04-22 12:14 -5.98209 106.67170 16034 ft 401 kts 83°
2026-04-22 12:14 -5.97885 106.70056 16907 ft 408 kts 83°
2026-04-22 12:15 -5.97562 106.72915 17713 ft 415 kts 82°
2026-04-22 12:15 -5.97232 106.75819 18476 ft 421 kts 82°
2026-04-22 12:15 -5.96911 106.78775 19207 ft 426 kts 84°
2026-04-22 12:15 -5.96939 106.81799 19871 ft 434 kts 95°
2026-04-22 12:16 -5.97479 106.84798 20591 ft 439 kts 103°
2026-04-22 12:16 -5.98348 106.87769 21258 ft 444 kts 107°
2026-04-22 12:16 -5.99264 106.90523 21884 ft 449 kts 109°
2026-04-22 12:16 -6.00504 106.93706 22573 ft 454 kts 112°
2026-04-22 12:17 -6.01765 106.96649 23188 ft 459 kts 113°
2026-04-22 12:17 -6.03059 106.99590 23778 ft 463 kts 113°
2026-04-22 12:17 -6.04351 107.02579 24351 ft 467 kts 112°
2026-04-22 12:17 -6.05692 107.05719 24913 ft 471 kts 112°
2026-04-22 12:18 -6.06951 107.08682 25426 ft 475 kts 112°
2026-04-22 12:18 -6.08288 107.11830 25991 ft 478 kts 112°
2026-04-22 12:18 -6.09609 107.14943 26582 ft 480 kts 112°
2026-04-22 12:18 -6.10945 107.18092 27068 ft 484 kts 112°
2026-04-22 12:19 -6.12272 107.21218 27549 ft 487 kts 112°
2026-04-22 12:19 -6.13604 107.24354 28010 ft 490 kts 112°
2026-04-22 12:19 -6.14940 107.27511 28480 ft 492 kts 112°
2026-04-22 12:19 -6.16301 107.30725 29080 ft 491 kts 112°
2026-04-22 12:20 -6.17205 107.32861 29379 ft 493 kts 112°
2026-04-22 12:20 -6.18628 107.36224 29765 ft 496 kts 112°
2026-04-22 12:20 -6.19981 107.39426 30113 ft 499 kts 112°
2026-04-22 12:20 -6.21620 107.43303 30544 ft 502 kts 112°
2026-04-22 12:21 -6.22994 107.46553 30875 ft 504 kts 112°
2026-04-22 12:21 -6.24377 107.49828 31279 ft 504 kts 112°
2026-04-22 12:21 -6.25745 107.53065 31786 ft 502 kts 112°
2026-04-22 12:21 -6.27125 107.56334 32255 ft 501 kts 112°
2026-04-22 12:22 -6.28159 107.58773 32580 ft 500 kts 112°
2026-04-22 12:22 -6.29519 107.61986 33011 ft 499 kts 112°
2026-04-22 12:22 -6.30874 107.65190 33443 ft 498 kts 112°
2026-04-22 12:22 -6.32231 107.68404 33868 ft 498 kts 112°
2026-04-22 12:23 -6.33585 107.71607 34270 ft 497 kts 112°
2026-04-22 12:23 -6.34995 107.74937 34682 ft 497 kts 112°
2026-04-22 12:23 -6.36345 107.78135 35084 ft 497 kts 112°
2026-04-22 12:23 -6.37641 107.81208 35465 ft 496 kts 112°
2026-04-22 12:24 -6.39045 107.84537 35756 ft 498 kts 112°
2026-04-22 12:24 -6.40416 107.87792 36115 ft 498 kts 112°
2026-04-22 12:24 -6.41769 107.91001 36472 ft 498 kts 112°
2026-04-22 12:24 -6.43115 107.94197 36978 ft 494 kts 112°
2026-04-22 12:25 -6.44454 107.97375 37404 ft 493 kts 112°
2026-04-22 12:25 -6.45773 108.00504 37702 ft 494 kts 112°
2026-04-22 12:25 -6.47140 108.03720 38038 ft 494 kts 112°
2026-04-22 12:25 -6.48527 108.06899 38284 ft 496 kts 112°
2026-04-22 12:26 -6.49915 108.10082 38490 ft 499 kts 112°
2026-04-22 12:26 -6.51314 108.13299 38788 ft 499 kts 112°
2026-04-22 12:26 -6.52718 108.16536 39102 ft 499 kts 112°
2026-04-22 12:26 -6.54116 108.19762 39429 ft 498 kts 112°
2026-04-22 12:27 -6.55490 108.22931 39705 ft 499 kts 112°
2026-04-22 12:27 -6.56876 108.26131 39982 ft 499 kts 113°
2026-04-22 12:27 -6.58325 108.29460 40316 ft 497 kts 112°
2026-04-22 12:27 -6.59706 108.32640 40656 ft 496 kts 112°
2026-04-22 12:28 -6.61091 108.35839 40831 ft 498 kts 113°
2026-04-22 12:28 -6.62474 108.39035 40864 ft 498 kts 113°
2026-04-22 12:28 -6.65248 108.45449 40864 ft 499 kts 113°
2026-04-22 12:29 -6.68033 108.51892 40864 ft 499 kts 112°
2026-04-22 12:29 -6.69849 108.58653 40839 ft 488 kts 92°
2026-04-22 12:30 -6.69207 108.65339 40858 ft 471 kts 78°
2026-04-22 12:30 -6.68568 108.68543 40859 ft 465 kts 77°
2026-04-22 12:31 -6.67401 108.75058 40880 ft 460 kts 79°
2026-04-22 12:31 -6.66622 108.80340 40855 ft 458 kts 81°
2026-04-22 12:32 -6.65759 108.86754 40851 ft 456 kts 81°
2026-04-22 12:32 -6.64494 108.96373 40851 ft 457 kts 81°
2026-04-22 12:33 -6.63621 109.03020 40851 ft 455 kts 81°
2026-04-22 12:33 -6.62791 109.09325 40852 ft 454 kts 81°
2026-04-22 12:34 -6.61952 109.15683 40853 ft 455 kts 81°
2026-04-22 12:34 -6.61117 109.22005 40853 ft 456 kts 81°
2026-04-22 12:35 -6.60269 109.28426 40856 ft 457 kts 81°
2026-04-22 12:35 -6.59533 109.33988 40856 ft 456 kts 81°
2026-04-22 12:36 -6.58695 109.40310 40858 ft 454 kts 81°
2026-04-22 12:36 -6.57850 109.46685 40872 ft 453 kts 81°
2026-04-22 12:37 -6.57024 109.52916 40867 ft 449 kts 81°
2026-04-22 12:37 -6.56193 109.59168 40863 ft 448 kts 81°
2026-04-22 12:38 -6.55368 109.65377 40867 ft 452 kts 81°
2026-04-22 12:38 -6.54534 109.71638 40872 ft 452 kts 81°
2026-04-22 12:39 -6.53301 109.80899 40871 ft 445 kts 81°
2026-04-22 12:40 -6.52458 109.87218 40871 ft 444 kts 81°
2026-04-22 12:40 -6.51601 109.93635 40877 ft 444 kts 81°
2026-04-22 12:41 -6.50780 109.99778 40875 ft 442 kts 81°
2026-04-22 12:41 -6.49960 110.05914 40877 ft 443 kts 81°
2026-04-22 12:42 -6.49140 110.12079 40875 ft 445 kts 81°
2026-04-22 12:42 -6.48311 110.18254 40875 ft 445 kts 81°
2026-04-22 12:43 -6.47509 110.24224 40876 ft 442 kts 81°
2026-04-22 12:43 -6.46651 110.30601 40876 ft 442 kts 81°
2026-04-22 12:44 -6.45822 110.36763 40876 ft 442 kts 81°
2026-04-22 12:44 -6.45007 110.42891 40876 ft 442 kts 82°
2026-04-22 12:45 -6.44184 110.49112 40876 ft 442 kts 82°
2026-04-22 12:45 -6.43366 110.55284 40876 ft 442 kts 82°
2026-04-22 12:46 -6.42689 110.60386 40876 ft 442 kts 82°
2026-04-22 12:46 -6.41874 110.66519 40876 ft 441 kts 82°
2026-04-22 12:47 -6.41056 110.72685 40876 ft 440 kts 82°
2026-04-22 12:47 -6.40228 110.78972 40876 ft 440 kts 82°
2026-04-22 12:48 -6.39392 110.85310 40876 ft 440 kts 82°
2026-04-22 12:48 -6.38574 110.91465 40876 ft 439 kts 81°
2026-04-22 12:49 -6.37734 110.97759 40876 ft 439 kts 81°
2026-04-22 12:49 -6.37049 111.02892 40876 ft 439 kts 81°
2026-04-22 12:50 -6.36231 111.09015 40876 ft 439 kts 81°
2026-04-22 12:50 -6.35410 111.15197 40876 ft 439 kts 82°
2026-04-22 12:51 -6.34608 111.21267 40876 ft 438 kts 81°
2026-04-22 12:51 -6.33787 111.27464 40876 ft 438 kts 81°
2026-04-22 12:52 -6.32987 111.33497 40876 ft 438 kts 82°
2026-04-22 12:52 -6.32170 111.39655 40876 ft 438 kts 81°
2026-04-22 12:53 -6.31362 111.45749 40876 ft 438 kts 82°
2026-04-22 12:53 -6.30561 111.51861 40876 ft 438 kts 82°
2026-04-22 12:54 -6.29763 111.57897 40878 ft 438 kts 82°
2026-04-22 12:54 -6.28957 111.63950 40875 ft 435 kts 81°
2026-04-22 12:55 -6.28150 111.70007 40876 ft 434 kts 81°
2026-04-22 12:55 -6.27342 111.76070 40876 ft 435 kts 81°
2026-04-22 12:56 -6.26539 111.82097 40876 ft 435 kts 82°
2026-04-22 12:56 -6.25725 111.88075 40876 ft 433 kts 82°
2026-04-22 12:57 -6.24900 111.94107 40876 ft 432 kts 82°
2026-04-22 12:57 -6.24053 112.00304 40876 ft 433 kts 82°
2026-04-22 12:58 -6.23237 112.06271 40876 ft 433 kts 82°
2026-04-22 12:58 -6.22415 112.12271 40876 ft 433 kts 82°
2026-04-22 12:59 -6.21582 112.18390 40876 ft 432 kts 82°
2026-04-22 12:59 -6.20762 112.24426 40876 ft 433 kts 82°
2026-04-22 13:00 -6.20058 112.29580 40876 ft 433 kts 82°
2026-04-22 13:00 -6.19234 112.35607 40877 ft 441 kts 82°
2026-04-22 13:01 -6.18362 112.41972 40876 ft 453 kts 82°
2026-04-22 13:01 -6.17500 112.48263 40876 ft 461 kts 82°
2026-04-22 13:02 -6.16586 112.54919 40876 ft 466 kts 82°
2026-04-22 13:02 -6.15687 112.61467 40876 ft 465 kts 82°
2026-04-22 13:03 -6.14801 112.67910 40876 ft 464 kts 82°
2026-04-22 13:03 -6.13918 112.74323 40876 ft 464 kts 82°
2026-04-22 13:04 -6.13031 112.80764 40876 ft 464 kts 82°
2026-04-22 13:04 -6.12139 112.87229 40876 ft 464 kts 82°
2026-04-22 13:05 -6.11257 112.93621 40876 ft 464 kts 82°
2026-04-22 13:05 -6.10349 113.00194 40876 ft 464 kts 82°
2026-04-22 13:06 -6.09460 113.06629 40876 ft 464 kts 82°
2026-04-22 13:06 -6.08715 113.12013 40876 ft 464 kts 82°
2026-04-22 13:07 -6.07818 113.18488 40876 ft 464 kts 82°
2026-04-22 13:07 -6.06909 113.25044 40876 ft 464 kts 82°
2026-04-22 13:08 -6.06022 113.31437 40876 ft 464 kts 82°
2026-04-22 13:08 -6.05144 113.37762 40876 ft 464 kts 82°
2026-04-22 13:09 -6.04214 113.44452 40876 ft 464 kts 82°
2026-04-22 13:09 -6.03326 113.50841 40876 ft 464 kts 82°
2026-04-22 13:10 -6.02425 113.57308 40876 ft 464 kts 82°
2026-04-22 13:10 -6.01529 113.63741 40876 ft 464 kts 82°
2026-04-22 13:11 -6.00634 113.70162 40876 ft 464 kts 82°
2026-04-22 13:11 -5.99758 113.76434 40876 ft 464 kts 82°
2026-04-22 13:12 -5.98841 113.83017 40876 ft 464 kts 82°
2026-04-22 13:12 -5.97946 113.89441 40876 ft 464 kts 82°
2026-04-22 13:13 -5.97039 113.95915 40876 ft 464 kts 82°
2026-04-22 13:13 -5.96137 114.02340 40876 ft 464 kts 82°
2026-04-22 13:14 -5.95223 114.08851 40876 ft 464 kts 82°
2026-04-22 13:14 -5.94322 114.15273 40876 ft 464 kts 82°
2026-04-22 13:15 -5.93399 114.21826 40876 ft 464 kts 82°
2026-04-22 13:15 -5.92498 114.28214 40876 ft 464 kts 82°
2026-04-22 13:16 -5.91579 114.34720 40876 ft 464 kts 82°
2026-04-22 13:16 -5.90672 114.41146 40876 ft 464 kts 82°
2026-04-22 13:17 -5.89910 114.46536 40876 ft 464 kts 82°
2026-04-22 13:17 -5.89004 114.52993 40876 ft 464 kts 82°
2026-04-22 13:18 -5.88101 114.59412 40876 ft 464 kts 82°
2026-04-22 13:18 -5.87286 114.65192 40876 ft 464 kts 82°
2026-04-22 13:19 -5.86256 114.72479 40876 ft 464 kts 82°
2026-04-22 13:19 -5.85328 114.79034 40876 ft 464 kts 82°
2026-04-22 13:20 -5.84412 114.85503 40875 ft 464 kts 81°
2026-04-22 13:20 -5.83472 114.92127 40875 ft 459 kts 81°
2026-04-22 13:20 -5.83030 114.95244 40874 ft 444 kts 81°
2026-04-22 13:21 -5.82616 114.98163 40873 ft 430 kts 81°
2026-04-22 13:21 -5.81782 115.04038 40875 ft 416 kts 81°
2026-04-22 13:22 -5.80967 115.09771 40875 ft 414 kts 81°
2026-04-22 13:22 -5.80125 115.15692 40877 ft 418 kts 81°
2026-04-22 13:23 -5.79294 115.21528 40876 ft 417 kts 82°
2026-04-22 13:23 -5.78614 115.26300 40875 ft 414 kts 82°
2026-04-22 13:24 -5.77789 115.32095 40871 ft 414 kts 81°
2026-04-22 13:24 -5.76972 115.37818 40877 ft 419 kts 81°
2026-04-22 13:25 -5.76132 115.43708 40877 ft 421 kts 81°
2026-04-22 13:25 -5.75303 115.49512 40875 ft 417 kts 82°
2026-04-22 13:26 -5.74479 115.55277 40873 ft 417 kts 81°
2026-04-22 13:26 -5.73648 115.61085 40877 ft 422 kts 81°
2026-04-22 13:27 -5.72805 115.66969 40877 ft 422 kts 81°
2026-04-22 13:27 -5.71973 115.72780 40875 ft 418 kts 81°
2026-04-22 13:28 -5.71135 115.78625 40874 ft 417 kts 81°
2026-04-22 13:28 -5.70298 115.84459 40877 ft 421 kts 81°
2026-04-22 13:29 -5.69429 115.90513 40878 ft 422 kts 81°
2026-04-22 13:29 -5.68603 115.96261 40875 ft 418 kts 82°
2026-04-22 13:30 -5.67773 116.02030 40875 ft 417 kts 82°
2026-04-22 13:30 -5.67012 116.07320 40877 ft 421 kts 81°
2026-04-22 13:31 -5.66110 116.13587 40901 ft 422 kts 82°
2026-04-22 13:31 -5.65274 116.19385 40897 ft 417 kts 82°
2026-04-22 13:32 -5.64462 116.25017 40899 ft 416 kts 82°
2026-04-22 13:32 -5.63589 116.31069 40907 ft 420 kts 82°
2026-04-22 13:33 -5.62748 116.36893 40906 ft 422 kts 82°
2026-04-22 13:33 -5.61900 116.42754 40884 ft 415 kts 82°
2026-04-22 13:34 -5.61213 116.47508 40881 ft 411 kts 82°
2026-04-22 13:34 -5.60383 116.53250 40890 ft 411 kts 82°
2026-04-22 13:35 -5.59557 116.58952 40891 ft 413 kts 82°
2026-04-22 13:35 -5.58692 116.64922 40883 ft 410 kts 82°
2026-04-22 13:36 -5.57884 116.70499 40883 ft 408 kts 82°
2026-04-22 13:36 -5.57046 116.76287 40891 ft 416 kts 83°
2026-04-22 13:37 -5.56201 116.82125 40895 ft 429 kts 83°
2026-04-22 13:37 -5.55302 116.88302 40891 ft 443 kts 83°
2026-04-22 13:38 -5.54392 116.94555 40889 ft 454 kts 83°
2026-04-22 13:38 -5.52997 117.04125 40896 ft 466 kts 82°
2026-04-22 13:39 -5.52089 117.10650 40892 ft 466 kts 84°
2026-04-22 13:39 -5.51294 117.17176 40892 ft 463 kts 84°
2026-04-22 13:40 -5.50509 117.23532 40830 ft 456 kts 83°
2026-04-22 13:40 -5.50123 117.26628 40341 ft 441 kts 84°
2026-04-22 13:40 -5.49866 117.28688 39831 ft 443 kts 84°
2026-04-22 13:41 -5.49458 117.31938 38372 ft 461 kts 84°
2026-04-22 13:41 -5.49049 117.35205 36795 ft 482 kts 84°
2026-04-22 13:41 -5.48624 117.38592 35477 ft 495 kts 84°
2026-04-22 13:41 -5.48191 117.42061 34322 ft 507 kts 84°
2026-04-22 13:42 -5.47727 117.45789 33587 ft 513 kts 84°
2026-04-22 13:42 -5.47265 117.49486 33294 ft 508 kts 84°
2026-04-22 13:42 -5.46828 117.52978 33035 ft 502 kts 83°
2026-04-22 13:42 -5.46389 117.56478 32474 ft 494 kts 83°
2026-04-22 13:43 -5.45960 117.59895 31751 ft 494 kts 83°
2026-04-22 13:43 -5.45498 117.63570 31157 ft 488 kts 83°
2026-04-22 13:43 -5.45069 117.66985 30601 ft 484 kts 83°
2026-04-22 13:43 -5.44631 117.70463 30232 ft 475 kts 83°
2026-04-22 13:44 -5.44205 117.73848 29807 ft 472 kts 83°
2026-04-22 13:44 -5.43796 117.77102 28931 ft 474 kts 83°
2026-04-22 13:44 -5.43397 117.80296 28143 ft 469 kts 83°
2026-04-22 13:44 -5.42977 117.83639 27696 ft 460 kts 83°
2026-04-22 13:45 -5.42577 117.86815 27103 ft 456 kts 83°
2026-04-22 13:45 -5.42179 117.89962 26526 ft 451 kts 83°
2026-04-22 13:45 -5.41919 117.92018 26146 ft 448 kts 83°
2026-04-22 13:45 -5.41397 117.96149 25380 ft 442 kts 83°
2026-04-22 13:46 -5.41136 117.98212 24997 ft 439 kts 82°
2026-04-22 13:46 -5.40753 118.01242 24431 ft 435 kts 82°
2026-04-22 13:46 -5.40374 118.04237 23868 ft 431 kts 82°
2026-04-22 13:46 -5.39996 118.07218 23305 ft 427 kts 82°
2026-04-22 13:47 -5.39605 118.10317 22788 ft 421 kts 82°
2026-04-22 13:47 -5.39239 118.13244 22427 ft 413 kts 82°
2026-04-22 13:47 -5.38886 118.16071 22080 ft 407 kts 82°
2026-04-22 13:47 -5.38533 118.18892 21733 ft 405 kts 82°
2026-04-22 13:48 -5.38177 118.21743 21382 ft 405 kts 82°
2026-04-22 13:48 -5.37794 118.24801 21007 ft 402 kts 82°
2026-04-22 13:48 -5.37414 118.27838 20635 ft 399 kts 82°
2026-04-22 13:48 -5.37186 118.29654 20412 ft 398 kts 82°
2026-04-22 13:49 -5.36807 118.32681 20041 ft 395 kts 82°
2026-04-22 13:49 -5.36466 118.35404 19707 ft 393 kts 82°
2026-04-22 13:49 -5.36119 118.38169 19369 ft 392 kts 82°
2026-04-22 13:49 -5.35780 118.40868 19038 ft 389 kts 82°
2026-04-22 13:50 -5.35444 118.43548 18710 ft 387 kts 82°
2026-04-22 13:50 -5.35099 118.46328 18535 ft 379 kts 82°
2026-04-22 13:50 -5.34775 118.48926 18463 ft 364 kts 82°
2026-04-22 13:50 -5.34474 118.51333 17984 ft 338 kts 82°
2026-04-22 13:51 -5.34185 118.53642 17108 ft 327 kts 81°
2026-04-22 13:51 -5.33903 118.55897 16123 ft 329 kts 81°
2026-04-22 13:51 -5.33609 118.58245 15462 ft 330 kts 81°
2026-04-22 13:51 -5.33333 118.60461 15292 ft 312 kts 81°
2026-04-22 13:52 -5.33064 118.62613 15169 ft 311 kts 81°
2026-04-22 13:52 -5.32781 118.64875 15106 ft 310 kts 81°
2026-04-22 13:52 -5.32503 118.67090 15042 ft 310 kts 81°
2026-04-22 13:52 -5.32239 118.69186 14997 ft 310 kts 81°
2026-04-22 13:53 -5.31965 118.71364 14998 ft 310 kts 81°
2026-04-22 13:53 -5.31688 118.73558 14998 ft 310 kts 81°
2026-04-22 13:53 -5.31498 118.75068 14962 ft 309 kts 81°
2026-04-22 13:53 -5.31217 118.77299 14766 ft 308 kts 81°
2026-04-22 13:54 -5.30945 118.79452 14416 ft 306 kts 81°
2026-04-22 13:54 -5.30679 118.81562 14072 ft 304 kts 81°
2026-04-22 13:54 -5.30414 118.83662 13712 ft 303 kts 80°
2026-04-22 13:54 -5.30135 118.85869 13262 ft 305 kts 81°
2026-04-22 13:55 -5.29848 118.88145 13144 ft 300 kts 81°
2026-04-22 13:55 -5.29603 118.90089 13086 ft 317 kts 81°
2026-04-22 13:55 -5.29392 118.92481 12888 ft 356 kts 85°
2026-04-22 13:55 -5.29324 118.94934 12335 ft 357 kts 88°
2026-04-22 13:56 -5.29342 118.97487 11869 ft 351 kts 89°
2026-04-22 13:56 -5.29384 118.99899 11461 ft 334 kts 89°
2026-04-22 13:56 -5.29409 119.02192 11083 ft 316 kts 89°
2026-04-22 13:56 -5.29422 119.04344 10748 ft 309 kts 88°
2026-04-22 13:57 -5.29429 119.06620 10366 ft 306 kts 88°
2026-04-22 13:57 -5.29425 119.08730 10132 ft 300 kts 88°
2026-04-22 13:57 -5.29421 119.10792 10064 ft 288 kts 88°
2026-04-22 13:57 -5.29418 119.12805 10005 ft 279 kts 88°
2026-04-22 13:58 -5.29413 119.14808 10000 ft 276 kts 88°
2026-04-22 13:58 -5.29409 119.16062 9979 ft 274 kts 88°
2026-04-22 13:58 -5.29399 119.18613 9477 ft 276 kts 88°
2026-04-22 13:58 -5.29392 119.20580 8829 ft 287 kts 88°
2026-04-22 13:59 -5.29383 119.22657 8166 ft 297 kts 88°
2026-04-22 13:59 -5.29377 119.24064 7770 ft 299 kts 88°
2026-04-22 13:59 -5.29365 119.26761 6557 ft 290 kts 88°
2026-04-22 13:59 -5.29356 119.28864 5681 ft 309 kts 88°
2026-04-22 14:00 -5.29350 119.30338 5205 ft 315 kts 88°
2026-04-22 14:00 -5.29341 119.32329 4737 ft 293 kts 89°
2026-04-22 14:00 -5.29332 119.34409 4611 ft 256 kts 89°
2026-04-22 14:00 -5.29324 119.36127 4592 ft 237 kts 89°
2026-04-22 14:01 -5.29316 119.37843 4610 ft 252 kts 89°
2026-04-22 14:01 -5.29309 119.39637 4612 ft 257 kts 89°
2026-04-22 14:01 -5.29152 119.41502 4551 ft 246 kts 77°
2026-04-22 14:01 -5.28473 119.42976 4303 ft 224 kts 50°
2026-04-22 14:02 -5.27268 119.43932 4062 ft 211 kts 34°
2026-04-22 14:02 -5.26018 119.44689 3782 ft 209 kts 30°
2026-04-22 14:02 -5.24735 119.45407 3505 ft 208 kts 30°
2026-04-22 14:02 -5.23449 119.46138 3216 ft 202 kts 30°
2026-04-22 14:03 -5.22175 119.46873 2944 ft 207 kts 30°
2026-04-22 14:03 -5.20929 119.47596 2695 ft 206 kts 30°
2026-04-22 14:03 -5.19689 119.48317 2441 ft 203 kts 30°
2026-04-22 14:03 -5.18465 119.49029 2140 ft 195 kts 31°
2026-04-22 14:04 -5.17668 119.49493 1950 ft 186 kts 31°
2026-04-22 14:04 -5.16260 119.50313 1625 ft 166 kts 31°
2026-04-22 14:04 -5.15310 119.50865 1412 ft 151 kts 30°
2026-04-22 14:04 -5.14407 119.51391 1214 ft 150 kts 30°
2026-04-22 14:05 -5.13487 119.51926 1007 ft 145 kts 30°
2026-04-22 14:05 -5.12869 119.52286 872 ft 141 kts 30°
2026-04-22 14:05 -5.11164 119.53302 812 ft 149 kts 32°
2026-04-22 14:06 -5.10273 119.53895 1157 ft 159 kts 34°
2026-04-22 14:06 -5.09290 119.54626 1562 ft 175 kts 36°
2026-04-22 14:06 -5.08222 119.55240 1918 ft 191 kts 26°
2026-04-22 14:06 -5.06976 119.55857 2305 ft 203 kts 29°
2026-04-22 14:07 -5.05726 119.56571 2815 ft 212 kts 31°
2026-04-22 14:07 -5.04421 119.57344 3346 ft 218 kts 31°
2026-04-22 14:07 -5.03082 119.58088 3834 ft 222 kts 23°
2026-04-22 14:07 -5.01558 119.58300 4062 ft 224 kts 357°
2026-04-22 14:08 -5.00013 119.58023 4051 ft 226 kts 351°
2026-04-22 14:08 -4.98307 119.57726 3996 ft 239 kts 352°
2026-04-22 14:08 -4.96655 119.57435 3930 ft 242 kts 349°
2026-04-22 14:08 -4.95557 119.57057 3931 ft 243 kts 333°
2026-04-22 14:09 -4.94050 119.55333 3994 ft 248 kts 294°
2026-04-22 14:09 -4.93722 119.53682 4003 ft 252 kts 278°
2026-04-22 14:09 -4.93630 119.52532 3998 ft 254 kts 277°
2026-04-22 14:09 -4.93460 119.50585 3985 ft 256 kts 277°
2026-04-22 14:10 -4.93293 119.48712 4011 ft 255 kts 276°
2026-04-22 14:10 -4.93249 119.46918 4014 ft 254 kts 265°
2026-04-22 14:10 -4.93648 119.45191 4010 ft 255 kts 254°
2026-04-22 14:10 -4.94218 119.43525 4002 ft 256 kts 252°
2026-04-22 14:11 -4.94841 119.41751 4000 ft 256 kts 251°
2026-04-22 14:11 -4.95433 119.40068 4000 ft 256 kts 251°
2026-04-22 14:11 -4.96027 119.38382 4000 ft 256 kts 251°
2026-04-22 14:11 -4.96627 119.36676 4005 ft 267 kts 251°
2026-04-22 14:12 -4.97270 119.34842 4005 ft 284 kts 251°
2026-04-22 14:12 -4.97929 119.32958 4001 ft 289 kts 251°
2026-04-22 14:12 -4.98612 119.31002 4003 ft 304 kts 251°
2026-04-22 14:12 -4.99322 119.28961 4001 ft 308 kts 251°
2026-04-22 14:13 -5.00033 119.26911 4000 ft 311 kts 251°
2026-04-22 14:13 -5.00759 119.24807 4051 ft 311 kts 252°
2026-04-22 14:13 -5.01530 119.22772 3980 ft 310 kts 245°
2026-04-22 14:13 -5.02747 119.20990 4001 ft 311 kts 229°
2026-04-22 14:14 -5.04301 119.19487 4002 ft 311 kts 222°
2026-04-22 14:14 -5.05950 119.18024 4000 ft 312 kts 221°
2026-04-22 14:14 -5.07554 119.16596 3999 ft 311 kts 221°
2026-04-22 14:14 -5.09196 119.15136 4000 ft 311 kts 221°
2026-04-22 14:15 -5.10801 119.13704 3999 ft 311 kts 221°
2026-04-22 14:15 -5.12467 119.12204 4000 ft 309 kts 221°
2026-04-22 14:15 -5.14026 119.10833 4000 ft 305 kts 218°
2026-04-22 14:15 -5.15836 119.09776 3984 ft 307 kts 199°
2026-04-22 14:16 -5.17938 119.09400 4002 ft 309 kts 183°
2026-04-22 14:16 -5.20176 119.09312 4002 ft 310 kts 181°
2026-04-22 14:16 -5.22327 119.09206 4000 ft 309 kts 181°
2026-04-22 14:16 -5.24457 119.09099 3999 ft 304 kts 181°
2026-04-22 14:17 -5.26558 119.08995 3999 ft 298 kts 181°
2026-04-22 14:17 -5.28683 119.08886 3997 ft 283 kts 181°
2026-04-22 14:17 -5.30542 119.08778 3983 ft 254 kts 181°
2026-04-22 14:17 -5.32243 119.08672 4007 ft 243 kts 181°
2026-04-22 14:18 -5.33923 119.08631 4003 ft 244 kts 173°
2026-04-22 14:18 -5.35493 119.09177 4007 ft 239 kts 144°
2026-04-22 14:18 -5.36612 119.10378 4004 ft 235 kts 124°
2026-04-22 14:18 -5.37505 119.11751 3986 ft 235 kts 122°
2026-04-22 14:19 -5.38404 119.13121 3997 ft 235 kts 122°
2026-04-22 14:19 -5.39266 119.14520 4001 ft 234 kts 114°
2026-04-22 14:19 -5.39571 119.16079 4003 ft 225 kts 84°
2026-04-22 14:19 -5.39110 119.17512 3995 ft 209 kts 64°
2026-04-22 14:20 -5.38090 119.20103 3996 ft 193 kts 75°
2026-04-22 14:20 -5.37905 119.20978 3992 ft 191 kts 76°
2026-04-22 14:20 -5.37639 119.22275 3996 ft 189 kts 77°
2026-04-22 14:21 -5.36914 119.24859 4002 ft 189 kts 68°
2026-04-22 14:21 -5.36374 119.26100 4000 ft 188 kts 64°
2026-04-22 14:22 -5.35245 119.28485 4002 ft 191 kts 65°
2026-04-22 14:22 -5.34712 119.29677 3996 ft 188 kts 65°
2026-04-22 14:22 -5.33663 119.32152 4032 ft 186 kts 68°
2026-04-22 14:23 -5.33169 119.33350 4045 ft 185 kts 68°
2026-04-22 14:23 -5.32677 119.34549 4010 ft 188 kts 68°
2026-04-22 14:23 -5.32187 119.35746 3998 ft 186 kts 68°
2026-04-22 14:23 -5.31653 119.37053 3999 ft 186 kts 68°
2026-04-22 14:24 -5.31189 119.38189 4002 ft 189 kts 68°
2026-04-22 14:24 -5.30679 119.39437 4004 ft 194 kts 68°
2026-04-22 14:24 -5.30157 119.40717 4002 ft 198 kts 68°
2026-04-22 14:24 -5.29621 119.42010 4000 ft 200 kts 65°
2026-04-22 14:25 -5.28747 119.43145 4005 ft 201 kts 42°
2026-04-22 14:25 -5.27461 119.43946 4005 ft 201 kts 31°
2026-04-22 14:25 -5.26577 119.44412 3939 ft 199 kts 28°
2026-04-22 14:25 -5.25348 119.45066 3642 ft 202 kts 29°
2026-04-22 14:26 -5.24134 119.45745 3373 ft 203 kts 30°
2026-04-22 14:26 -5.22914 119.46445 3102 ft 197 kts 30°
2026-04-22 14:26 -5.21732 119.47129 2841 ft 199 kts 30°
2026-04-22 14:26 -5.20452 119.47873 2568 ft 190 kts 30°
2026-04-22 14:27 -5.19357 119.48510 2316 ft 177 kts 30°
2026-04-22 14:27 -5.18303 119.49123 2092 ft 170 kts 31°
2026-04-22 14:27 -5.17326 119.49692 1843 ft 150 kts 32°
2026-04-22 14:27 -5.16434 119.50211 1655 ft 142 kts 31°
2026-04-22 14:28 -5.15575 119.50711 1470 ft 139 kts 30°
2026-04-22 14:28 -5.14739 119.51198 1290 ft 139 kts 30°
2026-04-22 14:28 -5.13906 119.51683 1108 ft 138 kts 30°
2026-04-22 14:28 -5.13058 119.52176 922 ft 138 kts 30°
2026-04-22 14:29 -5.12230 119.52658 727 ft 138 kts 30°
2026-04-22 14:29 -5.11402 119.53140 565 ft 138 kts 30°
2026-04-22 14:29 -5.10576 119.53621 378 ft 137 kts 30°
2026-04-22 14:29 -5.09719 119.54120 186 ft 136 kts 30°
2026-04-22 14:30 -5.08923 119.54583 63 ft 127 kts 30°
2026-04-22 14:30 -5.08288 119.54953 61 ft 80 kts 30°
2026-04-22 14:30 -5.07918 119.55168 61 ft 51 kts 30°
2026-04-22 14:30 -5.07745 119.55253 61 ft 12 kts 346°
2026-04-22 14:31 -5.07688 119.55201 61 ft 9 kts 302°
2026-04-22 14:31 -5.07665 119.55163 61 ft 7 kts 301°
2026-04-22 14:31 -5.07629 119.55102 61 ft 14 kts 300°
2026-04-22 14:31 -5.07600 119.55051 61 ft 6 kts 300°
2026-04-22 14:32 -5.07592 119.54985 61 ft 14 kts 257°
2026-04-22 14:32 -5.07656 119.54919 61 ft 15 kts 212°
2026-04-22 14:32 -5.07734 119.54872 61 ft 10 kts 210°
2026-04-22 14:32 -5.07804 119.54831 61 ft 17 kts 210°
2026-04-22 14:33 -5.07854 119.54802 61 ft 11 kts 210°
2026-04-22 14:33 -5.07874 119.54790 61 ft 0 kts 210°
2026-04-22 14:34 -5.07875 119.54790 61 ft 0 kts 210°
2026-04-22 14:35 -5.07876 119.54789 61 ft 1 kts 210°
2026-04-22 14:35 -5.07898 119.54788 61 ft 0 kts 162°
2026-04-22 14:35 -5.07902 119.54790 61 ft 1 kts 154°
2026-04-22 14:35 -5.07913 119.54802 61 ft 5 kts 131°
2026-04-22 14:36 -5.07930 119.54827 61 ft 3 kts 123°
2026-04-22 14:36 -5.07940 119.54843 61 ft 0 kts 121°